Theta_e
316 316 320 318 315 315 314 315 315 314 314 312 313 313 314 314 313 310 308 307 306 306 304 302 302 303 305 305 304 303 302 303 304 303 304 304 305 307 309 309 310 316 325 326
315 314 316 315 314 314 315 316 317 313 312 311 312 313 312 313 314 311 309 309 307 306 304 302 302 302 302 303 303 303 303 303 303 303 303 303 304 306 308 310 315 316 323 324
314 314 313 313 312 313 316 317 312 313 313 312 314 316 317 314 314 311 310 309 308 306 302 301 301 301 301 302 303 303 302 302 302 302 303 304 306 307 309 310 315 319 324 324
313 311 312 311 312 311 313 311 313 313 314 316 315 312 318 315 313 312 311 309 307 304 302 301 301 301 301 301 302 302 302 302 302 302 305 307 309 312 313 313 317 320 323 324
312 312 311 313 312 310 312 310 311 312 313 314 317 313 316 312 313 312 310 309 305 302 301 301 300 300 301 301 302 302 301 302 301 303 307 313 314 314 317 319 319 322 323 324
311 309 311 311 309 309 310 312 312 312 314 314 315 314 313 312 311 312 311 308 304 302 301 301 300 300 300 301 301 301 301 301 300 301 305 310 312 314 315 318 319 320 323 324
312 311 309 309 311 310 310 312 317 318 314 319 313 312 312 317 312 311 310 307 302 301 300 300 299 299 300 301 301 301 300 300 300 300 302 305 308 310 311 312 313 313 314 316
315 315 311 309 310 312 311 312 315 317 318 313 310 310 312 312 309 309 308 305 302 300 300 299 298 298 299 301 300 300 300 300 300 299 300 301 305 306 306 308 309 309 309 309
315 313 308 309 309 308 311 309 309 310 307 312 311 311 311 308 308 308 307 305 301 300 298 298 298 298 299 300 300 300 300 300 300 299 299 299 300 302 303 304 305 306 306 307
311 314 310 308 308 308 310 308 309 308 312 317 313 311 308 310 308 307 307 306 302 299 298 297 297 298 298 300 300 300 300 300 301 300 300 299 299 300 301 302 302 304 304 305
309 311 310 309 309 310 307 308 310 309 310 313 313 310 307 310 308 308 306 306 302 298 297 296 297 298 298 300 300 299 299 300 302 300 301 304 301 302 302 302 304 301 304 306
309 311 311 310 307 306 308 309 308 310 312 309 310 309 307 308 308 308 307 307 301 298 297 296 297 297 298 299 299 299 299 298 299 302 303 299 302 304 302 300 300 302 301 303
309 309 311 312 307 306 308 309 310 308 306 311 312 311 306 307 308 308 306 305 300 298 296 295 296 296 297 298 299 299 299 298 298 298 298 298 297 297 297 298 298 299 298 298
307 309 312 316 310 308 307 308 308 308 309 310 310 307 306 306 306 306 306 304 299 297 297 295 295 296 297 297 298 298 298 298 297 298 297 297 297 297 296 296 296 296 296 296
308 305 307 306 306 306 307 309 307 309 309 307 310 308 308 306 305 305 304 305 300 299 297 296 295 294 296 296 297 298 298 297 297 297 298 297 297 297 297 296 296 295 295 294
307 305 304 301 305 305 305 305 307 308 308 309 309 309 307 306 306 304 305 306 303 299 298 297 296 296 296 296 297 297 297 297 296 296 296 295 295 295 294 294 294 294 293 292
306 307 307 308 300 299 300 302 304 306 308 309 309 309 308 307 306 307 305 306 305 300 299 297 296 296 296 296 297 296 296 296 296 295 295 294 294 293 293 293 292 292 291 291
305 307 309 310 305 311 312 303 303 305 307 306 308 309 308 308 306 305 304 305 304 302 299 298 296 296 296 296 296 296 296 296 295 295 294 294 293 293 292 292 291 290 290 291
304 307 310 309 309 310 311 305 302 303 305 305 306 307 307 306 305 304 304 304 305 302 299 298 297 296 296 296 295 295 295 295 295 294 294 293 293 292 291 291 290 290 290 290
305 305 309 303 307 310 312 301 300 303 307 306 306 306 307 304 307 306 304 303 303 302 300 298 297 296 296 295 295 295 294 294 294 294 293 293 292 291 291 290 290 290 290 290
306 306 309 309 309 305 306 298 298 310 312 301 302 305 304 306 305 302 301 303 302 302 299 299 297 296 295 295 295 294 294 294 294 294 293 292 292 291 290 290 289 289 289 289
307 308 308 309 311 311 299 297 304 306 301 298 300 301 305 303 302 300 302 301 301 300 299 298 297 295 295 295 294 293 293 294 294 293 293 292 291 290 290 289 289 289 289 289
307 306 308 307 308 303 296 302 298 297 298 299 298 299 300 304 302 299 299 300 299 299 298 297 296 295 295 295 294 293 293 294 293 293 292 292 291 290 290 289 289 289 289 288
302 303 304 305 305 305 301 299 297 298 297 297 297 297 299 301 300 299 296 296 296 295 296 296 295 294 293 294 294 294 294 294 293 293 292 291 290 289 289 288 289 289 289 288
301 301 301 303 303 300 301 300 302 300 296 296 294 295 296 297 297 296 296 294 294 294 296 295 294 294 293 293 294 294 294 294 293 293 291 290 290 289 288 288 288 288 289 289
300 300 304 305 303 305 306 304 302 300 299 297 296 294 293 294 294 295 295 294 294 293 295 294 294 294 293 293 293 293 294 294 293 291 290 290 289 288 287 287 287 287 288 288
Wind_Speed
1 2 4 6 1 4 5 4 5 4 6 2 7 12 8 7 8 7 8 4 3 4 7 12 15 17 18 21 27 31 29 30 27 24 22 19 17 18 19 19 23 20 27 31
2 5 5 8 4 2 3 3 4 4 4 2 8 16 13 8 7 8 7 2 4 5 5 9 16 18 20 22 27 30 33 30 29 26 24 21 19 17 20 20 19 22 30 30
5 4 4 3 3 3 4 1 3 4 6 7 8 7 2 2 1 6 5 4 3 3 5 6 11 17 21 24 27 29 31 32 30 30 26 20 18 16 19 20 16 24 29 27
5 6 5 3 3 2 3 4 4 4 6 3 3 5 5 3 6 7 7 6 5 2 4 5 9 14 18 24 28 29 31 31 31 32 26 13 11 11 12 17 14 22 27 26
1 5 4 4 0 3 2 1 2 2 4 6 1 1 6 1 5 8 8 8 6 3 3 5 7 12 16 21 26 27 30 30 33 31 29 9 5 10 13 13 15 18 24 26
3 3 3 2 6 4 4 2 5 3 3 1 4 3 5 4 5 3 6 7 6 4 2 5 8 11 15 20 26 27 29 30 32 31 29 26 24 20 14 16 19 17 18 21
4 5 3 2 4 2 3 3 2 3 2 4 4 2 9 4 7 6 8 8 7 5 3 3 5 10 14 19 25 25 29 30 29 29 29 27 31 25 25 14 28 27 26 23
6 3 9 7 2 2 6 2 3 4 2 3 2 6 5 4 8 5 7 8 7 5 3 4 5 9 12 15 21 26 27 28 28 28 29 31 33 27 27 31 34 30 33 32
4 4 3 2 3 2 5 4 1 1 2 1 4 7 2 5 4 6 7 7 7 6 5 5 6 8 10 13 16 21 25 29 29 27 29 33 33 34 33 34 35 36 37 37
5 2 2 3 1 2 2 1 3 2 1 4 5 4 5 6 9 8 9 9 8 7 6 5 5 6 9 12 13 18 21 24 28 29 31 33 38 38 37 37 38 43 39 41
5 1 2 3 7 7 3 3 3 0 2 3 3 6 2 4 11 12 9 9 9 9 7 6 6 5 8 11 12 15 18 23 26 29 33 38 39 39 39 38 38 36 37 38
2 1 4 6 3 4 3 6 6 4 5 2 1 7 2 5 7 9 9 8 9 10 9 7 7 6 7 10 11 14 13 14 20 22 28 31 35 35 36 36 34 34 35 35
1 1 1 4 2 2 5 5 3 3 2 6 5 5 2 3 1 0 8 9 8 9 9 8 8 7 7 10 10 12 11 11 12 14 20 24 27 29 30 31 32 31 31 30
1 1 5 4 2 3 4 6 8 6 3 4 9 8 4 7 8 7 6 9 9 9 9 8 7 9 9 10 11 11 11 11 11 14 18 20 21 24 24 25 27 28 28 28
1 5 3 5 5 5 5 5 10 16 18 8 1 14 11 10 11 12 11 9 11 11 11 9 9 8 13 12 12 13 12 11 9 14 16 16 15 17 19 21 23 22 23 23
2 2 1 4 4 7 7 9 14 19 21 19 22 27 13 11 5 9 12 12 12 13 13 11 11 13 16 17 17 15 17 14 11 12 15 16 17 16 16 18 20 20 21 20
7 4 2 4 3 5 7 19 23 16 13 23 18 30 3 6 8 13 12 15 16 15 14 14 14 17 21 23 21 19 21 18 17 14 14 15 16 17 17 16 15 18 18 17
7 6 1 3 4 5 3 2 15 20 21 23 18 23 8 10 8 9 9 16 17 15 15 15 15 20 26 25 23 22 21 22 21 20 15 14 16 17 17 17 17 17 16 15
4 5 3 3 4 11 17 6 7 9 12 22 26 29 22 5 2 7 8 12 18 18 16 23 28 28 30 31 28 26 24 24 23 21 21 18 15 16 17 17 16 16 16 16
3 2 6 3 4 7 4 1 2 5 9 12 22 26 19 9 9 11 14 11 13 16 22 25 28 29 31 33 32 30 28 27 27 25 24 21 18 16 16 16 16 17 16 16
6 3 13 10 6 9 9 5 3 5 5 5 6 11 7 10 8 1 4 12 11 19 23 28 31 31 33 37 36 32 31 31 30 27 25 22 20 19 17 15 15 16 16 15
11 12 6 6 6 15 6 5 8 2 2 3 5 7 2 4 5 3 2 7 9 12 21 29 27 27 33 40 39 31 32 33 29 28 27 25 23 21 21 21 19 19 19 19
6 8 8 13 10 0 8 3 7 2 1 3 2 4 4 4 4 5 4 5 7 11 20 28 27 29 34 40 40 33 37 33 32 31 29 27 26 24 22 23 23 22 20 20
5 6 4 4 7 15 8 9 9 8 7 5 4 3 3 4 4 5 4 6 6 11 17 26 27 24 26 37 40 41 38 37 35 34 32 30 29 27 25 24 23 25 25 22
6 11 6 9 10 9 12 14 15 11 10 8 7 7 7 7 6 7 7 7 7 12 19 26 25 26 28 37 40 39 39 39 37 35 33 32 30 29 27 26 26 27 24 24
7 8 10 10 9 13 16 12 13 11 15 16 12 8 9 9 9 8 8 8 11 13 22 22 24 25 28 36 38 41 39 41 41 38 36 36 34 31 29 29 25 23 22 21
Wind_Direction
141 251 211 229 119 31 313 326 297 327 106 293 247 261 258 213 188 222 248 211 283 338 335 355 349 348 344 342 330 333 325 323 318 311 299 289 277 275 263 253 251 235 210 209
169 234 82 80 63 320 349 18 310 284 81 235 284 283 268 235 210 201 237 262 295 330 338 349 351 348 348 342 336 331 331 326 325 314 302 283 273 271 269 264 253 229 206 206
262 84 103 127 157 237 168 172 260 275 319 245 310 282 351 57 163 189 227 239 247 310 351 346 355 350 350 345 338 336 333 333 334 327 318 301 282 269 263 257 262 222 202 200
252 105 163 182 236 194 283 51 186 300 356 299 52 284 292 243 199 223 232 224 211 47 16 352 354 354 355 349 341 343 342 344 345 345 327 281 262 267 266 251 241 205 195 196
178 159 190 216 281 158 102 69 279 329 288 321 84 65 272 169 249 225 216 205 149 99 32 352 359 4 1 356 350 350 350 355 359 6 18 24 302 277 307 257 208 188 193 192
72 348 242 35 74 36 96 233 206 263 239 304 204 150 277 200 212 205 202 159 145 144 69 38 20 11 6 3 3 358 1 2 12 14 32 42 44 42 41 96 110 119 151 171
150 191 106 170 136 162 238 266 324 340 0 236 190 202 249 222 170 178 169 160 152 141 91 46 23 20 14 10 6 8 7 9 16 19 37 39 55 51 54 62 82 81 85 98
175 246 170 171 266 193 196 323 184 237 284 304 64 238 257 59 145 119 120 140 136 171 135 84 48 36 26 21 14 13 12 14 18 29 34 46 66 56 61 66 77 81 82 83
202 125 51 1 39 6 152 215 7 63 54 10 220 256 150 109 148 157 173 158 177 177 136 101 73 51 39 32 27 21 18 27 28 35 41 50 58 64 64 67 75 80 85 88
351 102 186 107 268 244 334 28 97 332 200 263 281 270 239 209 208 192 201 193 181 154 143 123 89 63 55 49 40 41 36 40 40 44 52 56 62 66 68 73 72 83 88 93
345 117 123 123 206 180 164 228 205 15 203 211 301 262 285 249 183 190 194 188 170 154 155 133 113 94 75 66 56 54 49 49 52 49 60 73 70 78 78 77 85 84 94 97
200 349 182 205 80 18 284 214 176 156 223 235 93 272 338 54 142 162 178 177 156 149 146 142 133 125 98 85 70 66 62 53 57 63 69 71 79 83 85 86 89 90 92 93
114 291 48 319 21 24 243 204 254 110 77 208 156 259 355 73 57 25 163 161 148 148 145 145 147 146 130 111 99 86 75 67 66 71 72 75 78 85 88 92 94 95 94 94
138 212 210 200 121 114 219 217 202 188 192 194 227 283 197 220 210 203 215 166 157 162 158 162 160 155 155 136 126 114 96 85 88 96 90 84 82 84 81 84 89 95 99 102
304 222 222 249 246 192 220 201 200 214 225 207 223 233 246 230 208 203 186 171 162 173 171 171 166 161 168 158 144 135 120 108 110 110 105 99 98 102 105 104 103 103 102 100
224 257 25 285 232 224 238 220 231 220 233 249 258 271 254 249 256 182 184 181 182 183 177 175 165 165 173 174 163 155 139 135 139 131 127 129 127 121 112 112 113 110 106 105
163 167 159 259 11 334 284 214 220 220 213 220 230 242 172 231 223 218 188 184 190 188 180 178 173 174 175 179 172 165 154 152 151 152 150 148 142 133 127 120 115 112 112 112
156 142 169 304 17 269 269 202 220 219 236 226 245 252 220 232 223 216 191 186 191 188 179 181 172 172 181 179 177 170 167 160 161 158 162 164 156 147 143 140 137 131 127 122
162 144 169 226 214 300 301 207 178 181 253 223 233 249 244 220 42 252 209 188 189 188 182 180 177 172 178 179 176 176 170 169 167 168 168 172 176 163 156 152 148 144 141 139
196 242 179 121 222 243 286 56 116 124 293 224 216 236 237 142 225 245 204 194 184 175 177 173 170 168 171 180 179 178 177 178 177 178 178 177 179 180 173 168 163 159 156 152
160 180 209 210 242 277 250 173 190 125 239 329 331 248 182 198 211 180 289 192 175 171 168 168 166 168 177 180 181 180 182 189 187 181 181 181 183 182 185 180 175 171 166 160
166 172 187 196 229 261 151 59 200 184 333 356 352 335 274 146 142 94 27 152 155 157 158 166 167 173 175 183 183 182 188 193 189 187 186 184 185 188 185 185 184 181 176 171
197 187 175 191 207 69 206 242 219 197 168 7 339 334 342 254 189 164 182 177 164 161 163 167 169 169 176 185 187 183 196 191 190 190 190 189 188 192 194 192 186 184 188 187
238 226 237 130 237 246 230 258 245 232 219 183 208 253 236 231 251 222 196 197 174 167 166 168 165 173 176 187 192 198 195 193 192 194 193 191 192 192 197 199 199 195 193 195
184 160 173 255 260 292 264 240 247 240 212 209 206 209 220 207 219 214 214 210 198 178 174 174 176 183 187 189 195 198 197 195 194 197 197 196 198 198 197 202 205 208 212 210
181 176 191 222 211 211 252 238 232 226 224 217 208 210 223 196 217 195 214 201 197 187 182 185 190 189 189 193 195 198 199 198 196 195 198 200 200 201 201 202 203 211 218 221